Temperature
16 16 16 16 16 16 16 16 16 16 16 16 16 16 16 16 16 16 16 16 16 16 16 16 16 16 17 17 17 17 17 17 17 17 17 17 17 17 17 17 17 17 17
16 16 16 16 16 16 16 16 16 16 16 16 16 16 16 16 16 16 16 16 16 16 16 16 16 16 16 16 16 17 17 17 17 17 17 17 17 17 17 17 17 17 17
16 16 16 16 16 16 16 16 16 16 16 16 16 16 16 16 16 16 16 16 16 16 16 16 16 16 16 16 16 16 17 17 17 17 17 17 17 17 17 17 17 17 17
16 16 16 16 16 16 16 16 16 16 16 16 16 15 15 16 15 15 15 15 15 15 16 16 16 16 16 16 16 16 16 16 16 16 17 17 17 17 17 17 17 17 17
16 16 16 16 16 16 16 16 16 15 16 15 15 15 15 15 15 15 15 15 15 15 15 15 15 16 16 16 16 16 16 16 16 16 16 16 16 16 16 16 16 17 17
16 16 16 16 16 16 16 16 15 15 15 15 15 15 15 15 15 15 15 15 15 15 15 15 15 15 15 15 15 16 16 16 16 16 16 16 16 16 16 16 16 16 16
16 16 16 16 15 15 15 15 15 15 15 15 15 15 15 15 15 15 15 15 15 15 15 15 15 15 15 15 15 15 16 16 16 16 16 16 16 16 16 16 16 16 16
16 16 16 15 15 15 15 15 15 15 15 15 15 15 15 15 15 15 15 15 14 14 14 14 14 15 15 15 15 15 15 15 16 16 16 16 16 16 16 16 16 16 16
16 16 15 15 15 15 15 15 15 15 15 15 15 15 15 15 14 14 14 14 14 14 14 14 14 14 15 15 15 15 15 15 15 15 16 16 15 15 15 16 16 16 16
16 15 15 15 15 15 15 15 15 15 15 15 15 15 15 15 15 14 14 14 14 14 14 14 14 14 14 15 15 15 15 15 15 15 15 15 15 15 15 15 15 15 15
15 15 15 15 15 15 15 15 15 15 15 15 15 15 15 15 15 15 14 14 14 14 14 14 14 14 14 14 14 14 14 15 15 15 15 15 15 15 15 15 15 15 15
16 15 15 15 15 15 15 15 15 15 15 15 15 15 15 15 15 15 15 14 14 14 14 14 14 14 14 14 14 14 14 14 14 15 15 15 15 15 15 15 15 15 15
16 16 16 16 15 15 15 15 15 15 15 15 15 15 15 15 15 15 15 14 14 14 14 13 13 13 14 14 14 14 14 14 14 14 14 14 14 15 15 15 15 15 15
16 16 16 16 15 15 15 15 15 15 15 15 15 15 15 15 15 15 15 14 14 14 13 13 13 13 13 13 14 14 14 14 14 14 14 14 14 14 14 14 14 14 14
16 16 16 16 16 16 15 15 15 15 15 15 15 15 15 15 15 15 15 14 14 14 13 13 13 13 13 13 13 13 13 13 14 14 14 14 14 14 14 14 14 14 14
16 16 16 16 16 16 16 16 16 15 15 15 15 15 15 15 15 15 15 14 14 14 14 13 13 13 13 13 13 13 13 13 13 13 13 14 14 14 14 14 14 14 14
16 16 16 16 16 16 16 16 16 15 15 15 15 15 15 15 15 15 15 14 14 14 14 13 13 13 13 13 13 13 13 13 13 13 13 13 13 13 13 13 13 13 13
17 16 16 16 16 16 16 16 15 15 15 15 15 15 15 15 15 14 14 14 14 14 14 13 13 13 13 13 13 13 13 13 13 13 13 13 13 13 13 13 13 13 13
17 17 16 16 16 16 16 16 15 15 15 15 15 15 15 14 14 14 14 14 14 14 13 13 13 13 12 12 12 12 12 12 12 12 12 12 12 12 12 12 12 13 13
17 17 16 16 16 16 16 15 15 15 15 15 15 14 14 14 14 14 14 14 13 13 13 13 13 12 12 12 12 12 12 12 12 12 12 12 12 12 12 12 12 12 12
16 16 16 16 16 16 16 15 15 15 15 15 14 14 14 14 14 14 14 13 13 13 13 13 12 12 12 12 12 12 12 12 12 12 12 12 12 12 12 12 11 11 11
16 16 16 16 16 16 16 15 15 15 15 15 14 14 14 14 14 14 13 13 13 13 13 12 12 12 12 12 12 12 11 11 11 11 11 11 11 11 11 11 11 11 11
16 16 16 16 16 16 16 15 15 15 14 14 14 14 14 14 14 14 13 13 13 13 12 12 12 12 12 12 12 11 11 11 11 11 11 11 11 11 11 11 11 11 11
16 16 16 16 16 16 15 15 15 15 14 14 14 14 14 13 13 13 13 13 13 13 12 12 12 12 12 12 11 11 11 11 11 11 11 11 11 11 10 11 10 10 10
16 16 16 16 15 15 15 15 15 15 15 14 14 14 13 13 13 13 13 13 12 12 12 12 12 12 12 12 11 11 11 11 11 11 10 10 10 10 10 10 10 10 10
16 16 16 15 15 15 15 15 15 15 14 14 14 14 13 13 13 13 12 12 12 12 12 12 12 11 11 11 11 11 11 10 10 10 10 10 10 9 9 10 10 9 9
Wind_Speed
2 2 3 4 5 5 3 3 4 6 6 7 8 8 8 10 11 12 11 13 14 14 14 14 14 14 14 13 12 12 11 10 9 8 8 7 6 6 6 6 6 5 4
4 3 3 3 4 5 5 4 5 5 4 6 7 8 8 9 10 11 11 12 15 15 15 15 15 15 15 14 14 13 13 12 11 10 9 8 7 7 6 6 6 6 5
7 5 3 3 4 6 6 6 6 5 5 6 6 7 7 8 8 10 10 10 12 15 16 16 16 16 16 15 15 15 14 13 12 11 10 9 9 8 7 7 7 7 6
8 6 3 2 5 6 5 4 4 5 5 5 5 5 5 6 8 9 10 10 11 11 13 16 17 17 17 17 17 16 15 14 13 12 11 11 10 9 9 8 7 7 7
9 7 3 4 7 5 4 5 5 4 4 4 5 5 5 5 6 9 9 10 11 12 12 14 16 17 18 18 17 16 15 14 14 13 12 11 11 10 9 9 8 8 7
8 7 4 5 7 4 4 4 4 4 4 4 6 6 5 5 5 6 7 9 10 11 11 11 11 14 17 18 17 16 15 14 14 13 12 12 11 10 10 9 9 9 8
8 7 4 5 5 5 4 5 4 4 3 3 4 4 5 5 6 5 5 6 8 11 12 12 11 11 12 15 17 17 16 14 13 13 13 12 11 11 10 10 10 10 9
9 6 4 4 4 4 5 4 4 2 2 2 2 2 2 3 5 5 5 5 6 8 10 12 13 13 12 12 15 18 17 15 14 13 13 13 12 12 12 11 10 11 11
9 8 6 4 3 4 4 3 3 3 2 2 2 2 2 2 1 3 5 5 5 4 5 9 12 13 14 14 14 17 18 17 15 14 13 13 13 13 13 13 12 12 12
7 7 6 5 4 4 3 2 3 2 2 2 2 2 3 3 2 2 3 4 5 6 5 7 10 12 14 14 15 17 18 18 17 15 14 13 14 14 13 13 12 12 12
4 5 5 5 4 4 4 5 4 4 2 2 2 2 2 2 2 3 2 2 3 4 4 5 8 10 12 13 13 16 17 18 18 17 15 14 14 14 14 14 14 13 12
2 4 4 5 5 4 4 4 4 4 4 4 3 2 2 2 2 2 2 2 2 2 3 4 5 7 10 12 12 15 16 17 17 17 16 15 14 14 14 14 14 14 14
2 2 3 3 4 5 5 4 3 3 4 4 5 4 4 3 3 3 3 2 2 1 2 3 4 6 8 9 10 12 14 15 15 16 16 16 15 15 14 14 14 14 14
3 3 4 5 5 5 5 4 3 4 4 5 5 4 4 4 3 3 2 3 2 1 2 2 2 5 7 7 8 9 10 12 13 13 14 15 15 14 14 14 14 14 13
3 4 4 4 4 4 4 3 3 4 4 4 4 4 4 3 4 3 3 2 3 2 1 1 2 2 5 6 7 7 8 10 11 11 12 12 13 13 13 13 13 13 13
3 3 3 4 4 4 4 4 3 3 4 4 4 5 4 3 3 3 3 3 3 2 1 1 1 1 3 4 6 7 6 7 8 9 9 10 10 11 12 12 12 12 12
3 3 2 3 4 4 4 3 2 2 3 3 3 5 5 4 3 3 3 3 3 3 3 1 1 1 2 3 3 4 3 4 5 6 6 7 8 9 9 10 10 10 11
3 3 3 3 3 4 4 3 3 2 3 3 4 5 4 4 4 3 3 3 2 2 3 2 1 1 2 2 1 1 2 3 3 3 4 5 6 6 7 7 7 8 10
3 3 3 3 3 4 4 3 2 2 3 3 3 4 3 4 3 2 2 2 2 3 2 2 1 0 1 1 1 2 2 1 1 2 2 2 2 3 4 4 5 6 8
4 3 4 4 4 4 3 3 2 2 3 3 3 4 4 4 3 2 2 2 2 2 2 2 1 1 0 0 1 1 2 2 2 1 1 1 1 0 1 2 3 4 5
4 4 4 4 4 4 3 3 2 2 2 3 3 4 4 6 8 5 3 3 3 2 1 1 0 1 0 1 1 1 1 2 2 0 0 1 1 1 1 1 1 2 3
3 4 4 4 4 3 5 5 4 2 1 2 3 3 4 6 7 6 6 5 4 2 1 0 0 0 1 1 1 1 1 1 2 2 1 2 1 1 2 2 2 2 3
4 4 4 5 5 4 5 3 3 2 1 1 2 3 3 4 4 3 3 3 3 2 0 1 0 1 1 1 1 1 1 1 2 3 1 3 2 2 3 4 5 4 5
5 4 4 5 4 4 5 3 1 1 2 0 1 2 4 4 3 3 2 1 1 1 1 1 0 1 1 1 0 1 1 2 3 2 1 2 3 2 3 5 7 7 7
5 5 4 5 5 5 6 4 3 1 1 1 1 1 3 3 3 3 2 1 0 1 1 1 1 2 2 3 2 2 2 2 3 3 2 2 3 3 3 3 7 8 8
5 5 5 5 5 5 7 7 5 2 2 2 1 1 2 3 3 4 3 2 2 2 1 1 2 4 4 5 4 3 2 2 2 3 2 1 3 2 4 3 3 6 8
Wind_Direction
54 66 75 55 56 65 58 48 57 56 44 48 61 63 64 75 85 89 83 75 71 68 66 65 64 63 59 55 53 52 52 50 51 51 52 50 45 46 50 51 55 55 55
55 63 74 66 66 63 59 63 73 73 59 53 51 54 53 67 82 94 95 81 74 71 67 64 62 60 58 55 52 50 49 49 50 52 52 49 46 46 49 51 53 51 47
54 50 53 52 71 68 62 58 65 72 74 67 56 56 51 54 72 83 90 92 81 72 69 65 61 58 55 53 51 51 50 48 47 48 49 49 49 50 56 58 57 51 47
66 52 43 45 75 77 70 62 63 66 67 66 59 54 51 45 57 69 75 79 84 80 72 68 62 57 54 52 50 49 48 47 47 49 51 50 53 54 58 61 58 52 47
59 61 37 32 60 62 57 69 59 67 80 80 78 64 53 45 44 57 65 67 77 84 80 70 66 59 54 50 47 46 46 46 45 46 48 49 51 54 55 57 54 50 44
48 57 53 47 56 60 60 72 71 63 71 74 81 71 60 59 52 47 53 58 63 75 78 76 70 62 55 49 44 42 41 42 43 45 46 49 51 55 55 56 52 49 45
43 53 51 54 57 62 68 78 75 76 72 92 90 75 55 54 66 55 48 53 55 56 62 64 60 61 57 48 40 38 37 38 40 44 47 49 53 55 57 56 54 51 49
34 48 55 66 66 65 63 71 74 66 60 65 88 106 96 41 38 51 55 54 53 50 52 58 57 56 55 50 40 36 34 34 38 44 48 50 53 53 54 55 55 53 50
38 30 42 61 79 86 79 77 88 76 59 31 54 80 105 101 76 25 51 62 56 46 47 54 55 56 55 49 40 36 36 36 40 46 50 52 52 52 53 53 52 52 50
53 34 35 46 63 76 80 71 83 67 72 52 23 30 78 127 127 101 35 53 60 54 49 53 52 55 56 54 48 41 41 41 43 46 49 52 52 52 53 52 52 52 51
69 51 43 46 61 70 69 63 60 43 53 62 55 41 44 55 85 115 109 63 53 49 52 58 59 57 56 56 53 45 44 43 43 45 47 49 51 53 53 52 51 51 51
71 64 58 54 55 64 60 60 72 57 53 51 48 52 58 64 75 90 112 115 91 62 62 61 66 65 63 59 54 47 47 45 44 44 44 46 49 50 50 50 50 49 49
95 76 67 63 59 62 61 52 60 77 70 61 58 50 44 51 62 77 102 109 105 104 74 53 62 70 70 67 56 49 49 47 44 44 44 44 45 47 47 48 47 47 48
110 105 79 74 67 66 67 52 46 49 67 70 66 59 52 46 55 72 95 106 89 69 69 72 52 64 71 69 53 50 52 49 47 47 45 44 44 47 47 48 47 46 44
106 102 104 98 83 70 68 63 60 53 50 56 67 70 68 55 48 47 57 88 119 114 60 64 69 53 78 71 53 64 64 53 50 50 47 45 44 45 45 45 44 42 40
102 117 132 125 115 96 75 64 62 65 76 63 60 61 59 61 53 45 41 35 55 105 105 51 94 118 74 77 60 61 68 57 55 53 50 46 46 44 43 43 42 41 38
134 142 119 115 114 110 99 89 83 76 90 91 86 78 62 57 57 41 44 45 44 81 105 78 81 96 79 69 65 47 65 80 67 57 58 57 51 44 40 39 39 39 37
136 128 109 99 99 103 105 98 80 69 80 83 88 92 81 69 58 44 47 45 41 63 111 113 84 65 81 89 71 16 40 66 80 69 71 67 54 44 38 36 38 37 35
144 134 121 107 94 94 95 98 102 94 93 89 86 98 105 96 78 59 55 51 40 54 75 109 137 79 77 86 49 5 25 22 15 111 103 68 53 43 37 37 40 35 32
145 136 122 114 106 92 83 87 97 88 90 95 94 84 81 83 80 72 69 56 56 57 56 74 96 127 134 2 74 359 337 315 315 17 65 39 0 41 15 38 29 25 25
144 134 123 116 109 102 69 52 56 79 90 97 94 90 82 81 71 63 62 51 52 50 52 66 88 57 25 27 321 288 301 298 305 259 58 261 237 218 250 306 339 352 357
144 128 127 122 113 102 87 65 40 13 75 102 115 122 117 95 81 72 64 64 70 69 65 72 183 189 262 254 278 312 324 341 309 299 4 297 226 252 223 234 243 255 288
148 140 143 135 131 126 117 93 39 353 335 132 139 141 126 118 113 109 78 52 35 27 29 173 251 250 255 259 240 301 310 295 264 261 350 297 285 269 247 245 246 256 269
152 161 164 151 141 146 147 138 118 285 308 4 113 131 132 138 138 138 146 119 19 342 340 44 100 300 330 351 7 230 249 306 298 298 268 279 288 276 272 253 254 257 267
161 173 175 165 160 163 168 164 149 225 259 257 208 137 141 146 147 134 138 167 229 286 334 339 275 276 306 328 348 31 346 331 302 289 269 249 280 291 283 263 251 258 270
168 174 180 180 176 174 178 179 177 195 233 242 222 168 142 152 154 153 170 199 231 244 247 295 283 277 277 280 273 227 220 243 273 288 273 252 284 314 307 284 254 265 269
Height
1553 1553 1553 1553 1553 1553 1553 1553 1553 1553 1554 1554 1555 1555 1555 1555 1555 1555 1555 1555 1555 1554 1554 1554 1553 1553 1552 1551 1551 1550 1550 1550 1550 1549 1549 1549 1549 1550 1550 1550 1550 1550 1550
1554 1554 1554 1554 1554 1554 1554 1554 1555 1555 1555 1556 1556 1557 1557 1557 1557 1557 1557 1556 1556 1556 1556 1556 1555 1555 1554 1553 1552 1552 1551 1550 1550 1549 1549 1549 1549 1549 1549 1549 1549 1549 1550
1556 1556 1555 1556 1556 1556 1556 1556 1556 1557 1557 1557 1558 1558 1559 1559 1559 1559 1559 1558 1558 1558 1557 1557 1557 1556 1556 1555 1554 1553 1552 1551 1550 1550 1549 1549 1549 1548 1548 1549 1549 1549 1549
1556 1557 1557 1557 1557 1557 1557 1558 1558 1558 1559 1559 1559 1560 1560 1561 1561 1561 1561 1560 1560 1559 1559 1559 1558 1558 1557 1556 1555 1555 1553 1552 1552 1551 1550 1550 1549 1549 1549 1549 1549 1549 1548
1557 1558 1558 1558 1558 1559 1559 1559 1559 1560 1560 1561 1561 1562 1562 1562 1563 1563 1563 1562 1562 1562 1561 1561 1560 1559 1559 1558 1557 1556 1555 1554 1553 1552 1551 1550 1550 1549 1549 1549 1549 1548 1547
1558 1559 1559 1559 1559 1560 1560 1560 1561 1561 1562 1563 1563 1563 1564 1564 1565 1565 1564 1564 1564 1564 1563 1563 1562 1561 1560 1560 1559 1557 1556 1555 1554 1552 1551 1551 1550 1550 1550 1550 1549 1548 1547
1560 1560 1560 1560 1560 1561 1561 1561 1562 1563 1564 1564 1564 1565 1566 1566 1566 1567 1566 1566 1566 1566 1565 1565 1564 1563 1562 1561 1560 1558 1557 1555 1554 1553 1552 1552 1551 1551 1551 1551 1550 1549 1548
1561 1561 1561 1561 1562 1562 1562 1563 1563 1564 1565 1566 1566 1566 1567 1569 1569 1569 1568 1568 1568 1568 1567 1566 1566 1565 1564 1562 1561 1559 1558 1556 1554 1553 1553 1552 1552 1552 1552 1552 1551 1550 1550
1562 1562 1562 1563 1563 1563 1564 1564 1565 1565 1566 1567 1567 1568 1568 1569 1570 1571 1571 1570 1570 1569 1569 1568 1567 1566 1565 1564 1562 1561 1559 1557 1555 1554 1554 1554 1554 1553 1553 1553 1552 1551 1550
1563 1563 1564 1564 1564 1565 1565 1566 1566 1567 1567 1568 1568 1569 1569 1569 1570 1571 1572 1572 1571 1571 1570 1569 1568 1567 1566 1565 1564 1562 1560 1558 1556 1556 1555 1555 1555 1555 1554 1553 1553 1552 1551
1565 1565 1565 1565 1566 1566 1566 1567 1567 1568 1568 1568 1569 1569 1570 1570 1570 1571 1572 1573 1573 1572 1571 1571 1570 1569 1568 1566 1565 1564 1562 1560 1559 1558 1557 1557 1556 1556 1555 1554 1553 1553 1552
1566 1566 1567 1567 1567 1567 1567 1568 1568 1568 1569 1569 1569 1570 1570 1571 1571 1571 1572 1573 1573 1573 1573 1572 1571 1570 1569 1568 1567 1565 1564 1562 1561 1560 1559 1558 1557 1557 1556 1555 1554 1553 1553
1568 1568 1568 1568 1568 1568 1568 1569 1569 1569 1570 1570 1570 1570 1571 1571 1571 1572 1572 1573 1573 1574 1574 1573 1572 1571 1570 1569 1568 1567 1565 1564 1562 1561 1560 1559 1558 1558 1557 1556 1555 1554 1553
1569 1569 1569 1569 1569 1569 1570 1570 1570 1571 1571 1571 1571 1571 1571 1572 1572 1573 1573 1573 1573 1574 1574 1574 1573 1572 1571 1570 1569 1567 1566 1565 1564 1563 1561 1560 1559 1558 1557 1556 1555 1554 1553
1569 1570 1570 1570 1570 1571 1571 1571 1571 1571 1572 1572 1572 1572 1572 1573 1573 1573 1573 1574 1574 1574 1574 1574 1574 1573 1572 1571 1570 1568 1567 1566 1565 1564 1562 1561 1560 1559 1558 1557 1556 1555 1554
1570 1571 1571 1571 1571 1571 1572 1572 1572 1572 1572 1573 1573 1573 1573 1573 1573 1574 1574 1574 1574 1574 1574 1574 1574 1574 1573 1572 1571 1569 1568 1567 1566 1564 1563 1562 1561 1560 1559 1557 1556 1555 1554
1570 1571 1572 1572 1572 1572 1572 1572 1573 1573 1573 1573 1574 1574 1574 1574 1574 1574 1574 1574 1574 1574 1574 1574 1574 1574 1573 1572 1571 1570 1568 1567 1566 1565 1564 1563 1561 1560 1559 1558 1556 1555 1553
1570 1571 1572 1572 1572 1573 1573 1573 1573 1574 1574 1574 1574 1574 1574 1574 1574 1574 1574 1574 1574 1574 1574 1574 1574 1574 1573 1572 1571 1570 1569 1568 1566 1565 1564 1563 1562 1560 1559 1557 1556 1554 1552
1570 1571 1571 1572 1572 1573 1573 1573 1574 1574 1574 1574 1574 1574 1574 1574 1574 1574 1574 1574 1574 1574 1574 1574 1573 1573 1573 1572 1570 1569 1569 1567 1566 1565 1564 1563 1562 1560 1559 1557 1556 1554 1552
1569 1570 1571 1571 1572 1573 1573 1573 1574 1574 1574 1574 1574 1574 1574 1574 1574 1574 1574 1574 1573 1573 1573 1573 1573 1572 1572 1571 1570 1569 1567 1567 1566 1565 1564 1562 1561 1560 1558 1556 1555 1553 1551
1568 1569 1570 1571 1572 1572 1573 1573 1574 1574 1574 1574 1574 1574 1574 1575 1574 1574 1574 1573 1573 1573 1573 1573 1572 1571 1570 1569 1569 1568 1566 1565 1565 1564 1563 1561 1560 1558 1557 1556 1554 1552 1550
1567 1568 1569 1570 1571 1571 1572 1573 1573 1573 1574 1574 1574 1574 1574 1574 1574 1573 1573 1573 1572 1572 1572 1572 1571 1570 1569 1568 1567 1566 1565 1564 1563 1563 1561 1560 1559 1557 1556 1554 1553 1551 1549
1565 1566 1568 1569 1569 1570 1571 1572 1572 1573 1573 1573 1573 1573 1573 1572 1572 1572 1572 1572 1571 1571 1571 1571 1570 1569 1567 1566 1565 1564 1563 1562 1561 1561 1560 1558 1557 1555 1554 1552 1551 1549 1547
1563 1565 1566 1567 1568 1569 1570 1570 1571 1571 1571 1572 1572 1572 1571 1571 1571 1570 1570 1569 1569 1569 1569 1569 1568 1567 1566 1565 1564 1563 1562 1561 1559 1558 1557 1555 1554 1552 1551 1549 1548 1546 1545
1561 1562 1564 1565 1566 1567 1568 1569 1569 1569 1570 1570 1570 1570 1570 1569 1569 1568 1568 1567 1567 1567 1567 1566 1566 1565 1564 1563 1562 1561 1559 1558 1556 1555 1555 1553 1551 1549 1547 1546 1545 1544 1542
1558 1560 1561 1563 1564 1565 1566 1566 1567 1567 1567 1567 1568 1568 1568 1567 1567 1566 1566 1565 1564 1564 1564 1563 1562 1562 1561 1560 1559 1558 1557 1556 1554 1552 1551 1550 1547 1545 1543 1542 1541 1540 1538